Temp_Advection
nan nan nan nan nan nan nan nan nan nan nan nan nan nan nan nan nan nan nan nan nan nan nan nan nan nan nan nan nan nan nan nan nan nan nan nan nan nan nan nan nan nan nan nan nan nan nan nan nan nan nan nan nan nan nan nan nan nan nan nan nan nan nan nan nan nan nan nan nan
nan 1 3 3 3 2 2 2 2 3 2 2 2 3 4 4 4 3 3 3 2 2 2 1 1 1 1 1 2 2 2 2 1 1 0 0 0 1 1 1 1 1 1 1 1 1 1 1 1 1 0 0 1 1 1 1 1 1 1 1 1 1 0 0 0 0 0 1 nan
nan 2 3 2 2 1 0 1 2 3 3 3 3 4 4 4 4 3 3 3 3 2 2 1 1 1 1 1 2 2 2 2 1 1 0 0 1 1 1 1 1 1 1 1 1 1 1 1 1 1 0 0 1 1 1 1 1 1 1 1 1 1 0 0 0 0 0 0 nan
nan 2 1 1 1 1 1 2 3 3 4 3 4 4 4 4 4 4 4 3 3 2 1 1 1 1 1 1 1 2 2 1 1 1 0 0 1 1 1 1 1 1 1 1 1 1 1 1 1 0 0 0 1 1 1 1 1 1 1 1 1 1 0 0 0 0 0 0 nan
nan 2 1 1 2 3 4 4 3 3 3 3 3 3 3 4 4 4 3 3 2 2 1 1 1 1 1 1 1 2 2 1 1 0 0 0 1 1 1 1 1 1 1 1 1 1 1 1 1 0 0 1 1 1 1 1 1 1 1 1 1 0 0 0 0 0 0 0 nan
nan 2 3 3 3 4 4 4 3 3 3 3 3 2 3 3 4 3 3 2 2 2 2 1 1 1 1 1 2 2 2 1 0 0 0 1 1 1 1 1 1 1 1 1 1 1 1 1 1 0 0 1 1 1 1 1 1 1 1 1 0 0 0 0 0 0 0 0 nan
nan 1 2 2 3 3 4 3 3 3 3 3 2 2 2 3 4 3 3 3 3 2 2 1 1 1 1 1 1 1 1 1 0 0 1 1 1 1 1 1 1 1 1 1 1 1 1 1 0 0 0 0 1 1 1 1 1 1 1 0 0 0 1 1 0 0 0 0 nan
nan -0 0 1 2 2 3 3 3 3 2 2 1 2 3 3 4 4 4 3 3 2 1 1 1 1 1 1 1 1 1 1 1 1 1 1 1 1 1 1 1 1 1 1 1 1 1 1 0 0 0 1 1 1 1 1 1 1 1 0 0 0 1 1 1 1 0 0 nan
nan -1 0 1 1 1 2 3 2 2 1 1 1 2 3 3 4 4 4 3 2 2 2 1 1 1 1 1 1 1 1 1 1 1 1 1 1 1 1 1 1 1 1 1 1 1 1 0 -0 -0 0 1 1 1 1 1 1 1 0 0 1 1 1 1 1 1 0 0 nan
nan -0 1 0 0 1 2 2 2 1 1 1 2 2 3 3 3 3 3 3 3 2 2 1 1 1 1 1 1 1 1 1 1 1 1 1 1 1 1 0 1 1 1 1 1 1 1 0 -0 -0 0 1 1 1 1 1 1 1 0 1 1 1 1 1 1 1 0 0 nan
nan 1 0 -0 0 1 2 1 1 0 1 1 1 2 2 3 3 3 3 4 3 2 2 1 1 1 1 1 1 1 1 1 1 1 1 1 1 1 1 1 1 1 1 1 1 1 0 -0 -0 0 1 1 1 1 1 1 1 1 1 1 1 1 1 1 1 1 0 0 nan
nan 1 0 0 1 1 1 0 0 0 0 0 0 1 1 2 2 3 4 4 3 2 2 1 1 1 1 1 1 1 1 1 1 1 1 1 1 1 1 1 1 1 1 1 1 0 -0 -0 -0 0 1 1 1 1 1 1 1 1 0 1 1 0 0 1 1 1 1 0 nan
nan 1 1 1 1 1 1 0 0 0 0 0 0 1 1 2 2 3 3 3 3 2 2 2 1 1 1 1 1 1 1 1 1 1 1 1 1 1 1 1 1 1 1 1 1 0 -0 -0 0 0 1 1 1 1 1 1 1 1 1 1 1 1 1 1 1 1 1 0 nan
nan 2 1 1 1 1 0 0 0 0 0 0 0 1 1 2 2 2 3 3 3 3 2 2 1 1 1 1 1 1 1 1 1 1 1 1 1 1 1 1 1 1 1 1 1 0 -0 -0 -0 0 0 0 1 1 1 1 1 1 0 0 1 1 1 1 1 1 1 0 nan
nan 2 2 2 1 1 0 0 0 0 0 0 1 1 2 2 2 2 2 2 3 3 3 2 2 1 1 1 1 1 1 1 1 1 1 1 1 1 1 1 1 1 2 1 1 -0 -1 -0 0 0 0 0 1 1 1 1 1 1 1 1 1 1 1 1 1 1 0 0 nan
nan 2 2 2 1 1 1 1 1 1 0 1 1 1 1 1 2 2 2 2 2 3 2 2 2 2 1 1 1 1 1 1 1 1 1 1 1 1 1 1 1 2 2 2 1 -0 -1 -1 -0 0 0 0 0 1 1 1 1 1 1 1 1 1 1 1 1 1 0 0 nan
nan 2 2 1 1 1 1 1 1 1 1 1 1 1 1 1 2 2 2 2 2 2 2 2 2 2 2 1 1 1 1 1 1 1 1 1 1 1 1 1 2 2 2 1 1 0 -0 -0 -0 -0 0 0 0 1 1 1 1 1 1 1 1 1 1 1 1 1 0 0 nan
nan 2 2 1 1 1 1 2 1 1 1 1 1 1 1 1 1 1 2 2 2 2 2 2 3 2 2 1 1 1 0 1 1 1 1 1 1 1 1 2 2 2 2 1 0 0 0 -0 -0 -0 -0 -0 -0 0 1 1 1 1 1 1 1 1 1 1 1 1 0 0 nan
nan 2 2 1 1 1 1 1 1 1 1 1 1 1 1 1 1 1 1 1 1 2 2 3 3 2 2 2 1 1 1 1 1 1 1 1 1 1 1 2 2 2 1 1 0 1 0 -0 -0 -0 -0 -0 -0 0 1 1 1 1 1 1 1 1 1 1 1 1 1 0 nan
nan 1 1 1 1 1 1 1 1 1 2 1 1 1 1 1 1 1 1 1 2 2 2 2 2 2 2 2 1 1 1 1 1 1 1 1 1 1 2 2 2 1 1 0 1 1 0 -0 -0 -0 -0 -0 -0 0 0 1 1 1 1 1 1 1 1 1 1 1 1 1 nan
nan 0 0 1 1 1 1 1 2 2 2 1 1 1 1 1 1 1 1 2 2 2 2 2 2 2 2 2 2 1 1 1 1 1 1 1 1 1 2 2 2 1 0 0 1 1 0 -0 -0 -0 -0 -0 -0 -0 0 1 1 1 1 1 1 1 1 1 1 1 1 1 nan
nan -0 -0 0 0 0 1 1 1 1 1 1 1 1 1 1 1 1 2 2 2 2 2 2 2 2 2 2 2 1 1 1 1 1 1 1 1 2 2 2 2 1 -0 -0 1 1 0 -0 -0 -0 -0 -0 -0 -0 0 0 1 1 1 1 1 1 1 1 1 1 1 1 nan
nan 1 1 1 0 1 1 1 1 1 1 1 1 1 1 1 1 2 2 2 2 2 1 2 2 2 2 2 2 1 1 1 1 1 1 2 2 2 2 2 1 0 -1 -0 1 1 0 -0 0 0 -0 -0 -1 -0 -0 0 1 1 1 1 1 1 1 1 1 1 1 0 nan
nan 2 2 2 1 1 1 1 1 1 1 1 2 1 1 2 2 2 2 2 2 2 2 2 2 2 2 2 2 2 1 1 1 1 1 2 2 2 2 2 1 -0 -1 0 1 1 0 0 0 0 -0 -0 -1 -0 -0 0 0 1 1 1 1 1 1 1 1 1 1 -0 nan
nan 2 2 2 2 2 2 2 1 2 2 2 2 2 2 2 1 1 1 1 2 2 2 2 2 2 2 2 2 1 1 1 1 1 2 2 2 2 1 1 0 -1 -1 0 1 1 0 0 0 0 -0 -0 -1 -0 -0 0 1 1 1 1 1 1 1 1 1 1 0 -0 nan
nan -0 1 1 2 2 2 2 2 2 3 3 3 2 2 2 2 2 1 1 2 2 2 2 2 2 2 1 1 1 1 1 1 2 2 2 1 1 1 0 -0 -1 -1 0 1 1 0 0 0 0 -0 -0 -0 -0 -0 0 1 1 1 1 1 0 0 1 1 1 1 0 nan
nan -0 -0 0 1 1 2 2 2 2 2 3 3 3 3 3 2 2 2 2 2 2 2 2 1 1 1 1 1 1 1 1 1 1 1 1 1 1 1 0 -1 -1 -1 1 1 1 0 0 0 0 -0 -0 -0 -0 -0 0 1 1 1 1 0 0 0 1 1 1 1 1 nan
nan 2 1 0 0 0 1 2 2 2 3 3 3 3 3 3 2 2 2 2 2 2 2 1 1 1 1 -0 -0 0 1 1 1 1 1 1 1 1 0 -0 -1 -1 -0 1 1 1 0 0 0 0 -0 -0 -0 -0 -0 -0 0 1 1 0 0 1 1 2 2 2 2 2 nan
nan 3 3 2 2 1 1 1 1 2 3 3 3 3 3 2 2 2 2 2 2 1 1 1 1 1 -0 -1 -1 0 1 1 1 1 1 1 0 0 0 -0 -1 -1 -0 1 1 1 0 0 0 0 -0 -1 -1 -0 -0 0 1 1 1 0 0 1 1 1 2 2 2 2 nan
nan 2 2 3 3 3 3 2 2 2 2 2 2 2 2 2 2 2 2 1 1 1 2 2 1 0 -0 -0 0 1 1 1 1 1 1 0 0 0 -0 -0 -1 -1 -0 1 1 1 1 0 0 -0 -0 -0 0 -0 -0 0 1 1 1 1 1 1 1 1 2 2 2 1 nan
nan 1 1 1 2 2 3 3 3 3 2 2 2 2 2 2 2 2 2 1 1 1 2 1 1 1 1 1 1 1 1 2 1 1 0 -0 -0 -0 -0 -0 -1 -1 -0 1 1 1 1 0 0 -0 -0 0 0 0 -0 0 0 1 0 0 1 1 1 2 2 2 2 1 nan
nan 2 2 2 1 2 2 3 4 4 3 2 2 2 2 2 2 2 1 1 2 2 2 2 1 1 2 1 1 1 1 2 1 1 0 -0 -0 0 -0 -0 -1 -1 0 1 1 1 1 0 -0 -0 0 1 1 0 0 0 0 0 0 0 1 1 2 2 2 2 1 0 nan
nan 2 2 2 2 2 2 3 3 3 3 3 2 2 2 2 1 1 1 2 2 2 2 2 2 2 1 1 1 1 1 1 1 1 0 0 0 0 -0 -1 -1 -1 0 1 1 1 1 0 -0 -0 0 1 1 1 0 0 0 0 -0 -0 1 1 2 2 2 2 1 0 nan
nan -1 -0 -0 0 1 1 1 2 2 2 2 1 2 2 2 2 1 2 3 3 3 2 2 2 2 1 1 1 1 1 1 1 1 0 0 0 0 -0 -1 -1 -1 0 1 1 1 0 0 0 0 0 1 1 0 0 -0 -0 -0 -0 0 1 1 1 2 2 2 1 1 nan
nan -2 -2 -2 -2 -1 -1 -0 0 0 1 1 1 2 2 2 2 2 2 3 3 2 2 2 2 2 1 1 1 1 1 1 1 1 0 0 0 -0 -0 -1 -1 -1 0 1 1 1 1 0 0 0 1 1 1 0 -0 -0 -0 -0 0 0 0 1 1 2 2 1 1 1 nan
nan -1 -2 -2 -2 -1 -1 -1 -0 -0 0 1 2 2 2 2 2 2 3 3 3 2 1 1 2 1 1 1 1 1 1 1 1 0 0 0 -0 -0 -0 -1 -1 -1 0 1 1 1 0 0 0 0 1 1 0 -0 -0 -0 -0 -0 0 0 0 1 1 1 2 1 1 1 nan
nan 0 -0 -1 -1 -0 -0 -0 -0 0 1 1 2 2 2 2 2 3 3 3 2 1 1 1 1 1 0 0 1 1 1 1 1 0 0 0 -0 -0 -1 -1 -1 -0 0 1 1 1 0 0 0 1 1 0 -0 -0 -0 -0 0 0 0 0 0 0 1 1 1 1 1 1 nan
nan 1 1 0 0 0 0 1 1 1 1 2 2 2 3 2 2 2 3 2 2 1 1 1 1 0 0 1 1 1 1 1 1 0 -0 -0 -0 -0 -1 -1 -1 -0 1 1 1 1 0 0 0 1 0 0 -0 -0 -0 -0 -0 0 0 0 0 0 1 1 1 1 1 1 nan
nan 1 1 1 1 1 1 1 1 1 2 2 2 2 3 2 2 2 2 2 2 1 1 1 1 1 1 1 1 1 1 0 0 0 -0 -0 -0 -0 -1 -1 -1 -0 1 1 1 1 0 0 0 1 0 0 -0 -0 -0 -0 -0 0 0 0 0 0 1 1 1 1 1 1 nan
nan 1 1 1 1 1 1 1 1 1 2 2 2 2 2 2 3 3 3 2 2 1 1 1 1 1 2 1 1 0 0 0 0 -0 -0 -0 -0 -0 -1 -1 -1 0 1 1 1 0 0 0 1 1 0 0 -0 -0 -0 -0 0 -0 0 0 0 0 1 1 2 1 1 1 nan
nan nan nan nan nan nan nan nan nan nan nan nan nan nan nan nan nan nan nan nan nan nan nan nan nan nan nan nan nan nan nan nan nan nan nan nan nan nan nan nan nan nan nan nan nan nan nan nan nan nan nan nan nan nan nan nan nan nan nan nan nan nan nan nan nan nan nan nan nan
Wind_Speed
40 40 39 39 39 39 39 39 39 39 40 40 40 39 40 40 42 43 43 44 44 43 42 40 38 36 35 33 32 32 31 30 30 29 29 29 29 28 27 26 26 25 25 25 25 24 24 24 23 23 23 23 23 22 22 22 22 22 22 22 22 22 22 22 22 22 22 22 22
41 40 40 40 40 40 40 39 39 39 39 39 38 38 39 39 41 42 43 43 43 43 41 40 38 36 35 34 33 32 31 31 30 30 30 29 29 28 27 27 26 26 25 25 25 25 24 24 24 24 23 23 23 23 23 22 22 22 22 22 22 22 22 22 22 22 22 22 22
41 41 41 41 41 40 40 39 38 37 37 38 38 38 38 39 40 41 42 43 42 42 41 40 39 37 35 34 33 32 32 31 31 31 30 30 29 28 27 27 26 26 26 25 25 25 25 24 24 24 24 23 23 23 23 22 22 22 22 22 22 22 22 22 22 22 22 22 22
43 42 42 41 40 40 39 39 38 38 38 38 38 38 38 39 40 41 42 42 43 43 42 41 39 37 36 34 34 33 32 32 32 31 31 30 29 29 28 27 26 26 26 26 25 25 25 24 24 24 24 24 24 23 23 22 22 22 22 22 22 22 22 22 22 21 21 21 21
45 44 43 42 42 41 41 41 40 40 39 39 39 39 39 39 40 41 42 43 44 43 42 41 39 38 36 35 34 33 33 33 33 32 32 31 30 29 28 27 27 26 26 26 25 25 25 25 25 24 24 24 24 24 23 22 22 22 22 22 22 22 22 22 21 21 21 21 21
46 46 45 45 44 44 43 43 42 41 41 40 40 40 39 39 40 41 43 43 43 42 41 41 40 39 37 36 35 34 34 34 34 33 32 31 30 29 28 27 27 26 26 26 26 25 25 25 25 25 24 24 24 24 23 22 22 22 22 23 23 22 22 22 21 21 21 21 20
47 47 47 46 46 45 45 44 43 42 41 41 40 39 39 39 40 41 42 42 42 42 42 41 41 39 38 37 35 35 35 35 34 33 32 31 30 29 29 27 26 26 26 26 26 26 26 25 25 25 25 25 24 24 23 22 22 22 23 23 23 22 22 21 21 21 21 20 20
47 47 47 47 46 46 45 44 43 43 42 41 40 39 38 38 39 40 41 42 43 43 43 42 41 40 38 37 36 36 36 35 35 34 32 31 31 30 29 27 26 26 26 26 27 26 26 26 25 25 25 25 25 24 23 22 22 23 23 23 23 22 22 21 21 20 20 20 20
47 47 47 47 47 46 45 44 44 43 42 41 39 38 38 38 39 39 41 42 43 43 43 43 42 40 39 37 37 36 36 36 35 34 33 32 31 30 29 27 26 26 26 27 27 27 26 26 25 25 25 25 24 24 23 22 23 23 23 23 23 22 22 21 21 20 20 20 20
45 46 46 47 47 46 45 45 44 43 42 41 40 39 39 39 39 40 40 41 42 43 44 44 43 41 39 38 37 37 36 36 35 34 33 32 31 30 29 27 26 26 26 27 27 27 27 26 26 25 25 24 24 24 23 23 23 23 23 23 23 22 22 21 21 20 20 20 20
43 44 45 45 45 45 45 45 44 43 42 41 40 40 39 39 39 39 39 40 42 44 45 44 43 42 40 39 38 37 37 36 35 34 33 33 32 31 29 27 26 26 26 27 27 27 27 26 26 25 25 24 24 24 23 23 23 24 24 23 23 22 22 21 20 20 20 20 21
40 41 42 43 44 44 44 44 44 43 42 41 40 40 39 39 39 38 39 40 42 44 45 45 44 43 41 40 39 38 37 37 36 35 34 33 32 31 29 27 26 26 26 27 27 27 27 26 26 25 24 24 24 24 24 24 24 24 24 23 23 23 22 21 20 20 20 21 21
37 39 40 41 42 42 43 43 42 42 41 40 39 39 39 39 38 38 39 40 41 43 44 45 45 44 42 41 39 39 38 37 36 35 34 34 33 31 30 28 26 26 26 26 27 27 27 26 25 25 24 24 24 24 24 24 24 24 24 24 23 23 22 21 20 20 20 21 21
35 37 38 39 40 40 41 41 41 40 40 39 38 38 38 38 38 38 38 39 40 42 44 45 45 45 43 42 40 39 38 38 37 36 35 34 33 32 30 28 27 26 26 26 26 26 27 26 25 24 24 24 24 24 24 24 24 24 24 24 23 23 22 21 20 20 20 21 21
33 34 35 36 37 38 39 39 39 38 38 38 37 37 37 37 37 38 38 38 40 41 43 45 46 46 44 43 41 40 39 38 37 36 36 35 34 32 31 29 27 26 25 25 25 25 26 26 25 24 24 24 24 25 25 25 25 24 24 24 23 22 22 21 20 20 20 21 21
32 32 33 34 35 36 36 37 37 37 37 36 36 36 36 36 37 37 37 38 39 41 43 45 46 46 45 44 42 41 39 39 38 37 36 35 34 33 31 29 27 25 24 24 24 24 25 26 25 24 24 24 25 25 26 25 25 24 24 24 23 22 22 21 20 20 20 20 21
30 31 31 32 33 34 34 34 35 35 35 35 35 35 35 35 36 36 36 37 38 40 42 44 46 46 46 45 43 42 40 39 38 37 37 36 34 33 32 29 27 24 23 23 23 24 25 25 25 24 24 24 25 26 26 25 25 24 24 23 23 22 22 21 21 20 20 20 20
28 29 29 30 31 31 32 32 33 33 34 34 34 34 35 35 35 35 36 36 37 39 41 43 45 46 47 46 45 43 41 40 39 38 37 35 34 34 32 29 26 24 23 23 24 24 25 25 25 24 24 25 26 26 26 26 25 24 24 24 23 23 22 22 21 20 20 20 20
26 27 28 28 28 29 30 30 31 32 32 33 33 34 34 34 34 34 35 35 36 38 39 41 44 46 47 47 46 44 42 41 39 37 36 35 34 34 32 29 26 24 23 24 24 24 25 25 24 24 24 25 26 26 26 26 25 25 24 24 24 23 23 22 21 20 20 19 19
25 26 26 26 27 27 28 28 29 30 30 31 32 32 33 33 33 33 34 35 35 36 38 40 43 45 46 47 46 45 43 41 39 37 36 35 35 34 32 29 26 24 24 24 25 25 25 24 24 24 24 25 26 26 26 26 25 25 24 24 24 24 23 22 21 21 20 19 19
26 26 26 26 26 26 26 26 27 27 28 29 30 30 31 31 32 32 33 34 34 36 37 39 41 44 46 47 46 45 43 41 39 37 36 35 35 34 32 29 26 24 24 25 26 26 25 24 24 24 24 25 26 26 26 25 25 25 25 25 25 24 24 23 22 21 20 19 19
27 27 27 26 26 26 25 25 25 26 27 27 28 28 29 30 30 31 32 33 35 36 37 38 40 42 44 46 46 44 43 41 39 37 36 35 35 33 31 29 26 25 25 27 28 27 25 24 24 24 24 25 25 26 26 25 25 25 26 26 26 25 24 23 22 21 20 20 20
27 27 27 27 26 26 26 26 26 26 26 27 27 27 28 29 30 31 32 34 35 36 36 37 39 41 43 44 45 44 42 41 39 38 36 35 35 33 31 29 27 26 27 28 28 27 25 24 24 24 24 24 25 25 25 25 25 26 27 27 26 26 25 24 23 22 21 21 21
27 27 27 27 27 27 27 27 27 27 27 28 28 28 29 30 31 32 33 34 34 35 36 37 38 39 41 42 43 43 42 41 39 38 36 35 34 33 32 30 28 28 28 29 29 27 25 24 24 23 23 24 25 25 25 25 26 27 27 27 27 26 25 24 23 22 22 22 22
29 29 28 28 28 28 28 28 28 28 29 29 29 30 31 31 31 32 33 33 34 34 35 36 37 38 39 41 42 42 42 41 39 37 36 35 34 34 33 31 30 29 29 29 29 28 26 25 24 23 23 23 24 24 25 26 27 28 28 28 27 26 26 25 24 23 23 24 23
34 33 32 30 30 29 29 29 29 29 29 30 30 31 31 31 31 32 32 33 33 34 35 35 36 37 38 39 40 41 41 40 38 37 36 35 35 35 34 33 31 29 29 30 29 28 26 25 24 24 23 23 23 24 25 26 27 28 28 28 27 26 26 25 24 24 24 24 23
40 38 36 35 33 32 31 30 30 29 29 29 30 30 30 31 31 32 32 33 33 34 34 35 35 36 37 38 39 40 40 39 38 37 37 37 37 36 35 33 32 30 30 30 29 28 26 26 25 24 23 23 23 24 25 27 28 29 29 28 28 27 26 25 24 24 24 23 22
45 43 41 39 37 35 34 33 31 30 29 29 29 29 30 30 31 31 32 32 32 33 34 34 35 35 36 37 39 40 40 39 38 38 38 38 38 37 36 34 32 31 30 30 29 28 27 26 25 24 23 23 24 25 26 27 29 29 29 29 28 27 26 25 24 24 24 23 21
47 46 44 43 41 39 37 35 33 31 30 29 28 28 29 29 30 30 30 31 31 32 32 33 33 34 36 38 39 40 40 40 39 39 39 39 39 38 36 34 33 31 30 30 29 28 27 26 25 24 23 23 24 25 27 28 29 29 29 28 28 27 26 25 25 25 24 22 21
44 44 44 44 43 41 39 37 35 33 31 29 28 28 28 28 28 29 28 28 29 29 29 30 32 34 36 38 40 40 40 40 40 40 40 40 39 38 37 35 33 31 31 30 30 28 27 26 25 24 23 23 24 26 27 28 29 29 28 28 27 27 27 26 26 24 23 22 22
38 39 40 41 41 41 40 39 37 34 32 29 28 27 26 26 26 25 25 25 25 26 27 29 32 34 36 38 39 40 41 41 40 40 40 40 40 38 37 35 33 32 31 31 30 29 27 26 25 24 23 24 25 26 28 28 29 28 28 27 27 27 27 26 25 23 22 22 24
33 34 35 36 37 38 39 39 37 35 32 29 27 25 24 23 22 22 21 22 23 25 28 30 32 34 36 37 39 40 41 41 41 41 41 40 39 38 37 35 34 32 32 31 30 29 28 27 26 25 24 24 25 26 27 28 28 28 28 27 27 27 27 26 25 23 22 23 26
33 33 33 34 35 37 38 38 37 34 31 28 26 24 23 22 21 21 22 23 25 26 28 30 32 33 35 37 38 40 41 42 42 41 41 40 39 38 37 36 34 33 32 31 30 29 28 27 26 25 25 25 25 26 27 28 28 28 28 27 27 27 27 26 25 24 24 25 28
36 36 36 36 36 37 37 37 36 34 31 28 26 25 23 23 23 23 24 25 26 27 28 29 31 32 34 36 38 39 41 42 42 41 40 39 38 38 38 37 35 34 32 31 30 29 28 27 26 25 25 25 25 26 27 28 28 28 28 27 27 26 26 26 26 25 26 27 29
37 37 37 37 37 37 37 36 35 33 31 29 27 26 26 25 25 25 25 25 26 26 27 28 29 31 32 35 37 39 41 42 42 41 40 39 38 38 38 37 36 34 32 31 30 29 28 27 27 26 25 25 26 26 27 27 28 27 27 27 26 26 26 26 26 26 27 28 29
34 35 35 35 35 35 35 35 34 33 32 31 30 29 28 27 27 26 26 25 26 27 28 29 29 31 32 34 37 39 41 42 42 41 40 39 39 39 39 38 36 34 32 31 30 29 28 28 27 26 26 26 26 26 27 27 27 27 27 27 26 26 26 26 26 27 27 28 28
31 31 32 32 33 33 33 33 33 33 33 32 31 30 29 28 28 27 27 26 27 28 29 29 30 31 33 34 37 39 40 41 41 40 40 39 39 39 39 38 36 34 32 31 30 29 28 28 27 27 26 26 26 26 27 27 27 27 27 27 26 26 26 26 26 26 27 27 27
30 30 30 30 31 31 31 32 32 32 32 31 30 30 29 28 28 27 27 27 28 28 28 29 30 31 32 34 35 37 39 40 40 40 39 39 39 39 39 37 36 34 32 31 30 29 29 28 28 27 27 27 27 26 26 26 27 27 27 26 26 26 25 25 25 26 26 25 25
29 29 29 29 29 29 30 30 30 30 29 29 29 28 28 27 27 27 27 27 27 28 28 29 30 31 31 32 34 36 37 39 39 40 39 39 39 39 38 37 36 34 32 31 30 29 29 29 28 28 27 27 27 26 26 26 26 27 26 26 26 25 25 25 25 25 25 25 24
29 28 28 28 28 28 28 28 28 27 27 27 27 27 27 26 26 26 26 26 27 27 28 28 29 30 30 31 33 34 36 38 39 39 39 39 38 38 38 38 36 35 33 31 30 29 29 29 28 28 27 27 27 26 26 26 26 26 26 26 25 25 25 25 25 25 25 24 23
27 27 27 27 26 26 26 26 26 25 26 26 26 26 26 26 26 26 26 26 27 27 28 28 29 29 30 31 32 34 35 37 39 39 39 38 38 38 38 38 37 35 33 31 30 30 29 29 29 28 27 27 26 26 26 26 26 26 26 26 25 25 25 25 25 24 24 23 22
Wind_Direction
266 266 267 267 267 267 267 267 266 265 264 263 262 261 259 256 254 252 251 250 249 249 250 252 253 254 254 253 252 252 251 251 251 252 252 254 256 259 261 263 264 266 267 267 267 267 267 268 268 270 272 274 276 277 278 279 280 280 281 281 283 284 285 284 285 285 286 286 287
265 266 266 266 266 266 266 266 265 264 263 262 261 260 258 256 254 253 251 250 249 249 250 251 252 253 252 252 251 250 249 249 249 250 252 254 256 259 261 262 264 265 266 267 267 267 267 267 268 269 271 273 275 276 277 278 279 279 280 281 282 283 284 284 285 286 286 286 286
265 265 265 265 265 264 264 264 264 264 263 262 261 260 258 256 254 252 251 250 249 249 249 250 251 251 251 250 249 249 248 248 248 249 251 253 255 258 259 261 263 264 265 266 266 267 267 267 267 268 270 272 274 275 276 277 277 278 279 281 282 282 283 284 285 286 286 285 286
265 265 264 264 263 263 264 264 265 265 264 263 262 260 258 256 254 252 250 249 248 248 248 249 250 250 250 249 248 247 247 246 247 248 250 252 254 256 258 260 261 263 265 266 266 266 266 266 266 268 269 271 272 273 275 276 277 278 279 280 281 282 283 284 285 285 285 286 286
267 267 266 266 266 266 266 267 266 266 265 264 262 261 259 257 254 252 250 248 247 246 247 247 248 249 249 248 247 246 245 245 246 247 249 251 253 255 257 258 260 262 264 265 266 266 266 265 266 267 269 270 271 272 274 275 276 277 279 279 280 281 283 284 285 285 285 285 286
269 269 269 269 269 268 268 267 267 266 265 264 263 262 260 257 254 252 249 247 246 246 246 247 247 248 248 247 246 245 244 244 245 246 248 250 252 253 255 257 259 262 264 265 265 265 264 264 265 266 268 270 271 272 274 275 276 277 278 279 280 281 283 284 285 285 285 285 285
269 269 269 269 269 269 269 268 268 267 266 265 264 263 261 259 256 253 251 249 247 246 246 246 246 247 247 246 245 244 244 244 245 246 247 249 250 252 254 256 258 261 263 264 264 264 263 263 264 266 268 269 270 272 273 274 276 277 278 278 280 281 283 284 285 285 284 284 284
271 270 269 269 269 269 269 269 269 268 267 266 265 264 262 260 258 255 252 249 247 246 245 245 246 246 247 246 246 245 244 244 245 246 247 248 249 251 252 254 257 260 263 264 264 263 262 262 264 265 267 269 270 272 274 274 275 276 277 278 280 281 283 284 284 284 283 283 282
272 272 271 271 270 270 270 270 269 269 269 268 267 266 264 261 259 256 253 249 247 246 245 245 246 247 247 247 246 245 245 245 245 245 246 247 248 249 250 252 256 259 262 263 263 262 262 262 263 265 267 269 271 272 274 274 274 275 276 278 279 281 283 284 284 284 283 282 282
275 274 274 273 272 272 271 270 270 270 269 269 269 267 264 262 259 256 253 250 247 245 245 245 245 246 246 246 245 245 245 245 245 245 245 246 247 248 249 251 254 258 261 262 262 262 261 261 263 265 267 269 271 272 273 274 274 275 276 278 279 281 282 283 284 283 283 282 281
278 277 277 276 275 274 273 272 271 271 270 270 269 267 265 262 259 256 253 250 247 245 244 243 244 245 245 245 245 245 244 244 244 244 244 245 246 246 247 249 253 257 260 261 261 261 261 261 263 265 267 269 271 272 273 273 274 275 276 278 279 281 282 282 283 283 283 282 281
282 280 279 278 277 275 274 273 272 272 271 270 269 268 266 263 261 257 254 250 247 245 243 243 243 244 245 245 245 244 244 244 243 243 243 244 244 245 246 247 251 255 258 260 261 261 261 262 263 265 267 269 271 272 273 273 274 275 276 278 279 281 281 282 283 283 282 281 280
284 283 281 280 278 277 275 274 273 273 272 271 270 269 267 265 262 258 255 251 247 245 243 242 242 243 244 244 244 244 244 243 243 243 243 243 243 244 244 245 248 253 256 259 260 261 262 262 263 265 267 269 271 272 273 273 274 275 276 277 279 280 281 282 282 282 281 280 279
287 284 282 281 279 278 276 275 274 273 272 272 271 270 268 266 263 259 256 252 248 245 243 242 241 242 243 243 244 244 244 243 243 242 242 242 242 243 243 244 246 250 254 258 260 261 262 262 263 265 268 270 272 273 273 273 273 274 276 277 278 280 281 281 281 280 279 278 278
287 286 284 282 281 279 278 276 276 275 274 273 272 271 269 266 264 260 257 253 249 245 243 241 241 241 242 243 243 243 243 243 242 242 241 241 242 242 242 243 245 248 252 256 259 261 262 262 263 265 267 270 272 272 272 272 273 274 276 277 278 280 280 280 280 278 277 277 277
289 288 286 283 282 280 279 279 278 277 276 275 275 273 270 268 265 262 258 254 250 246 243 241 240 240 241 242 242 243 243 242 241 241 240 240 241 241 241 242 243 246 250 254 257 259 261 262 263 265 267 270 271 272 272 272 273 274 275 277 278 279 279 280 279 278 276 275 275
293 290 288 286 284 283 282 282 281 280 279 278 277 275 273 270 267 264 260 256 252 248 244 241 240 240 240 241 241 242 242 242 241 240 240 240 241 241 241 241 241 244 248 251 254 256 259 260 262 264 267 270 271 271 271 272 273 274 275 276 278 278 279 279 278 277 275 274 274
298 295 293 290 289 288 287 286 285 283 282 281 280 278 275 272 270 266 263 259 254 250 245 242 240 239 239 240 241 242 242 242 241 241 240 240 241 242 241 240 240 242 245 248 251 254 257 259 261 263 266 268 270 270 271 272 273 274 275 276 277 278 278 279 278 276 274 272 273
305 302 299 297 296 294 292 290 288 287 286 284 283 280 277 274 272 269 265 261 257 252 248 244 241 240 239 240 241 242 243 243 242 242 241 241 241 241 240 239 238 240 243 246 249 252 255 257 259 262 265 267 268 270 271 272 273 274 275 276 276 277 278 278 277 274 272 270 272
312 309 307 305 303 300 297 295 293 291 289 287 284 281 279 276 273 270 267 263 259 255 250 246 242 240 239 239 240 241 243 243 243 242 241 240 240 240 239 237 236 238 242 245 248 250 252 255 257 260 263 266 268 269 270 271 272 273 274 275 275 276 277 277 275 272 269 268 270
316 314 312 310 308 305 302 300 297 294 291 288 285 282 280 277 274 271 268 264 261 257 253 248 244 241 239 239 239 241 242 243 243 241 240 239 239 239 238 236 235 237 241 245 248 249 251 253 256 259 262 265 267 269 270 271 272 273 274 274 275 276 276 276 274 270 267 266 268
318 315 313 311 309 307 305 303 300 296 292 289 286 284 281 278 275 271 268 265 262 258 255 250 246 242 240 239 239 240 242 243 242 241 239 238 238 238 237 235 234 236 241 245 248 249 250 252 255 258 261 264 267 268 270 271 272 272 273 273 274 276 276 276 273 269 265 263 265
320 316 314 312 310 308 306 303 300 296 293 290 287 284 282 279 276 272 269 266 263 260 256 253 249 245 242 240 239 240 241 242 242 241 239 238 237 236 235 233 233 236 241 246 248 248 249 250 253 256 260 263 266 268 269 270 271 272 272 273 274 275 276 276 272 267 263 260 263
326 322 318 315 312 309 306 303 299 296 293 291 288 285 283 280 277 274 271 268 265 262 259 255 252 248 244 241 239 239 240 241 241 240 238 237 236 235 234 233 233 237 242 247 248 248 248 249 252 255 259 262 265 267 269 270 270 271 272 273 274 276 276 275 271 265 260 258 261
336 331 326 322 317 313 308 305 301 298 295 293 290 287 284 281 279 276 273 271 268 265 262 258 255 250 246 243 240 239 239 239 239 239 237 236 235 235 234 233 234 237 243 247 248 248 248 249 251 254 257 261 264 266 268 269 270 271 272 273 274 275 275 273 268 263 258 258 262
338 335 332 328 323 318 314 309 305 301 298 295 292 288 285 283 280 278 275 272 270 267 264 261 257 253 249 245 241 239 238 238 238 238 236 235 235 234 233 233 234 238 243 247 248 247 248 249 251 253 256 260 262 265 266 267 268 269 271 272 272 272 272 270 266 262 260 261 266
333 333 331 329 326 322 318 314 310 305 301 298 294 291 288 285 282 279 276 273 271 268 266 263 259 255 251 246 242 239 238 237 237 236 235 235 234 233 233 233 234 238 243 247 247 247 247 249 251 253 256 259 261 263 264 266 267 268 269 270 271 271 271 270 268 265 264 265 271
327 327 326 325 324 322 320 317 313 309 305 301 297 294 290 287 283 280 277 274 272 269 266 264 260 257 252 247 242 239 237 236 235 235 235 234 234 233 232 232 235 239 243 246 247 246 247 248 251 253 256 259 261 262 264 265 266 268 270 272 273 275 275 275 273 270 268 269 272
318 320 320 320 320 319 317 315 313 311 308 303 299 295 291 287 283 281 278 275 273 270 267 264 261 257 251 246 241 238 235 234 234 234 234 234 233 232 232 232 234 239 243 246 246 246 246 248 250 252 255 259 262 263 265 266 267 269 272 274 276 278 278 277 275 273 272 272 273
310 312 314 315 315 315 314 313 312 311 308 304 300 295 291 288 285 283 280 278 275 272 269 265 260 255 249 245 240 237 234 233 233 233 233 233 233 232 231 232 234 238 242 245 246 246 246 247 249 251 253 257 260 263 265 267 268 270 272 275 276 278 278 277 276 274 274 274 273
305 306 308 309 310 311 311 310 310 309 307 304 300 296 292 289 287 285 283 280 276 271 266 261 256 251 247 243 240 236 234 232 232 232 232 232 232 232 231 232 234 238 242 245 245 245 245 246 247 249 252 254 258 261 264 267 269 271 272 274 276 277 277 277 275 274 273 272 270
304 304 305 305 307 307 307 307 307 306 306 304 300 296 293 290 287 285 281 276 270 264 260 256 252 249 246 242 239 236 233 232 231 231 232 232 232 231 231 231 234 238 242 244 245 245 245 245 246 248 250 253 256 260 263 266 268 270 272 273 275 277 277 277 275 272 268 265 265
302 302 302 303 304 305 305 304 304 304 303 301 298 294 289 285 281 277 272 268 263 259 256 253 251 248 245 241 238 235 232 231 230 231 231 232 232 231 230 231 233 237 241 244 244 244 244 244 245 247 250 253 256 259 263 266 268 270 272 273 276 277 278 278 275 270 264 260 261
301 300 301 301 303 303 303 303 302 301 299 296 292 288 283 278 273 270 267 264 261 258 256 254 251 248 245 241 238 234 232 231 230 230 231 231 231 230 230 230 233 236 240 243 244 244 243 243 244 246 249 252 256 259 263 266 268 270 272 274 277 278 279 278 276 271 265 261 261
303 302 302 303 303 303 303 302 301 298 294 290 286 282 279 275 271 268 266 265 262 259 256 253 251 248 244 241 237 234 232 230 229 229 229 229 229 229 229 230 232 236 239 242 243 243 243 242 243 245 248 252 256 259 263 266 268 270 272 274 276 278 278 277 275 272 269 266 266
304 304 304 304 304 304 304 303 300 297 292 288 284 282 279 277 275 272 269 266 262 259 256 253 250 247 243 239 236 233 231 229 229 228 228 228 228 228 228 229 232 235 238 241 242 242 241 241 242 244 248 252 256 260 263 266 268 270 272 274 275 277 277 277 275 272 270 269 269
302 303 303 304 304 304 304 302 300 296 293 289 287 285 282 280 278 275 271 266 263 260 258 254 251 247 243 239 236 233 230 229 228 227 227 227 227 227 228 229 231 234 238 240 241 241 241 240 241 243 247 251 256 259 263 266 268 270 272 273 275 277 278 277 275 274 272 270 269
301 302 303 303 303 303 303 302 300 297 295 293 290 288 285 281 279 276 272 268 265 262 260 257 253 250 246 242 238 235 231 229 227 227 227 227 227 227 227 229 231 234 237 239 240 240 240 240 240 242 246 251 255 259 262 265 268 270 272 273 275 277 278 278 277 275 273 271 269
303 303 303 303 303 304 303 302 300 299 297 295 292 288 285 281 279 276 273 270 267 265 263 260 257 253 249 245 242 237 233 230 228 227 227 227 227 227 227 229 231 233 236 238 239 240 240 239 240 242 245 250 255 259 262 265 268 270 272 273 275 277 278 278 278 276 274 271 268
305 305 305 304 304 304 303 302 301 300 298 295 292 288 285 282 279 277 274 271 268 265 262 260 258 255 251 248 244 239 235 231 228 227 227 227 227 227 227 228 230 233 235 237 238 239 239 239 239 241 244 249 254 259 262 265 268 270 271 273 275 277 278 279 279 277 275 271 268
307 307 306 305 305 304 303 302 301 299 297 294 291 288 284 280 277 275 272 270 267 264 261 259 257 254 251 248 244 240 236 231 228 227 226 227 226 226 227 228 229 232 234 235 237 238 239 239 239 241 244 248 254 258 262 265 267 269 271 273 275 277 278 279 279 277 274 271 268
Height
1463 1463 1463 1463 1463 1463 1463 1463 1464 1464 1465 1465 1466 1466 1468 1469 1469 1470 1471 1473 1474 1475 1477 1479 1480 1481 1483 1483 1484 1484 1485 1485 1486 1486 1487 1487 1488 1488 1489 1489 1489 1489 1490 1490 1490 1490 1490 1490 1490 1489 1489 1489 1489 1489 1489 1489 1489 1488 1488 1488 1487 1487 1486 1485 1485 1484 1484 1483 1482
1459 1459 1460 1460 1460 1460 1460 1460 1460 1461 1461 1462 1462 1463 1464 1465 1466 1467 1468 1469 1471 1473 1474 1476 1478 1479 1480 1480 1481 1482 1482 1483 1483 1484 1484 1484 1485 1486 1486 1486 1487 1487 1487 1488 1488 1488 1488 1488 1487 1487 1486 1486 1486 1486 1486 1487 1487 1486 1486 1485 1485 1484 1484 1483 1483 1482 1482 1481 1480
1456 1457 1457 1457 1457 1456 1456 1456 1457 1458 1458 1459 1459 1460 1461 1462 1463 1464 1465 1466 1469 1470 1472 1473 1475 1476 1477 1478 1478 1479 1479 1480 1480 1481 1481 1482 1482 1483 1484 1484 1484 1485 1485 1485 1485 1485 1485 1485 1485 1485 1484 1484 1484 1484 1484 1484 1484 1484 1484 1483 1483 1482 1482 1481 1481 1480 1480 1479 1478
1454 1454 1453 1453 1453 1453 1453 1454 1454 1455 1455 1456 1457 1458 1459 1459 1460 1461 1462 1464 1466 1467 1469 1470 1472 1473 1474 1475 1475 1476 1476 1477 1477 1478 1478 1479 1479 1480 1481 1481 1482 1482 1482 1483 1483 1483 1483 1483 1483 1482 1482 1482 1482 1482 1482 1482 1482 1482 1481 1481 1481 1480 1479 1479 1479 1478 1478 1477 1476
1450 1450 1450 1450 1450 1451 1451 1451 1452 1453 1453 1454 1454 1455 1456 1456 1457 1458 1459 1461 1462 1464 1466 1468 1469 1470 1471 1472 1473 1473 1474 1474 1474 1475 1475 1476 1477 1478 1478 1479 1479 1480 1480 1480 1480 1481 1481 1481 1480 1480 1480 1480 1480 1480 1480 1480 1480 1480 1479 1479 1479 1478 1478 1477 1477 1476 1475 1475 1474
1447 1448 1448 1448 1448 1449 1449 1449 1449 1450 1451 1451 1452 1452 1453 1454 1454 1455 1456 1458 1459 1461 1464 1465 1466 1467 1468 1469 1469 1470 1471 1471 1471 1472 1473 1474 1474 1475 1476 1476 1477 1477 1478 1478 1478 1478 1479 1478 1478 1478 1478 1478 1478 1478 1478 1478 1478 1477 1477 1477 1476 1476 1475 1475 1474 1474 1474 1473 1472
1444 1444 1444 1445 1445 1446 1446 1447 1447 1448 1448 1449 1449 1449 1450 1451 1452 1453 1454 1455 1457 1459 1461 1463 1463 1464 1465 1466 1467 1467 1468 1468 1469 1469 1470 1471 1472 1472 1473 1474 1474 1475 1475 1476 1476 1476 1476 1476 1476 1476 1476 1476 1476 1476 1476 1476 1476 1475 1475 1474 1474 1474 1473 1473 1473 1472 1471 1471 1470
1441 1441 1442 1442 1442 1443 1443 1444 1444 1445 1445 1445 1446 1447 1447 1449 1449 1451 1452 1454 1455 1456 1458 1459 1460 1461 1462 1463 1464 1464 1464 1465 1466 1467 1468 1468 1469 1470 1470 1471 1472 1472 1473 1473 1474 1474 1474 1474 1474 1474 1474 1474 1474 1474 1474 1474 1474 1473 1473 1472 1472 1472 1471 1471 1470 1470 1469 1469 1468
1439 1439 1439 1439 1440 1440 1441 1441 1442 1442 1442 1443 1444 1444 1445 1446 1447 1448 1449 1450 1452 1454 1455 1457 1458 1459 1460 1461 1461 1461 1462 1462 1463 1464 1465 1466 1466 1467 1468 1469 1469 1470 1470 1471 1471 1472 1472 1471 1471 1471 1471 1471 1471 1471 1471 1471 1471 1471 1470 1470 1470 1469 1469 1469 1468 1468 1467 1467 1466
1436 1436 1436 1437 1437 1438 1438 1439 1439 1439 1440 1440 1441 1442 1443 1443 1444 1445 1446 1448 1449 1451 1453 1454 1455 1456 1457 1458 1458 1459 1459 1460 1461 1461 1462 1463 1464 1464 1465 1466 1467 1468 1468 1469 1469 1469 1469 1469 1469 1469 1469 1469 1469 1469 1469 1469 1469 1469 1468 1468 1468 1467 1467 1467 1466 1466 1465 1464 1464
1433 1434 1434 1434 1434 1435 1436 1436 1436 1437 1437 1438 1439 1439 1440 1440 1441 1442 1444 1445 1447 1448 1449 1451 1452 1454 1454 1455 1455 1456 1457 1457 1458 1459 1460 1460 1461 1462 1463 1463 1464 1465 1466 1466 1467 1467 1467 1467 1467 1467 1467 1467 1467 1467 1467 1467 1466 1466 1466 1466 1465 1465 1465 1464 1464 1464 1463 1462 1461
1431 1431 1431 1431 1431 1432 1433 1433 1434 1434 1434 1435 1436 1436 1437 1438 1439 1440 1441 1442 1443 1444 1446 1448 1449 1451 1452 1452 1453 1454 1454 1454 1455 1456 1457 1458 1459 1459 1460 1461 1462 1463 1463 1464 1464 1465 1465 1465 1465 1464 1465 1465 1465 1464 1464 1464 1464 1464 1464 1463 1463 1463 1463 1462 1462 1462 1461 1460 1459
1428 1428 1428 1428 1429 1429 1429 1430 1430 1431 1432 1432 1433 1433 1434 1435 1436 1437 1438 1439 1440 1441 1443 1445 1447 1448 1449 1450 1450 1451 1451 1452 1453 1454 1454 1455 1456 1457 1458 1459 1459 1460 1461 1462 1462 1463 1463 1463 1463 1463 1463 1463 1462 1462 1462 1462 1462 1462 1461 1461 1461 1460 1460 1460 1460 1459 1459 1458 1457
1426 1425 1425 1425 1426 1426 1426 1427 1427 1428 1429 1429 1430 1430 1431 1432 1433 1434 1435 1436 1437 1439 1440 1442 1444 1445 1446 1447 1448 1448 1449 1449 1450 1451 1452 1453 1454 1454 1455 1456 1457 1458 1459 1459 1460 1460 1460 1460 1460 1460 1460 1460 1460 1460 1460 1460 1459 1459 1459 1459 1459 1458 1458 1458 1458 1457 1456 1456 1455
1423 1423 1423 1423 1423 1423 1423 1424 1424 1425 1426 1426 1427 1428 1429 1429 1430 1431 1432 1433 1434 1436 1437 1439 1440 1442 1443 1444 1445 1446 1446 1447 1448 1449 1449 1450 1451 1452 1453 1454 1454 1455 1456 1457 1457 1458 1458 1458 1458 1458 1458 1458 1458 1458 1458 1457 1457 1457 1457 1456 1456 1456 1456 1456 1455 1455 1454 1454 1453
1420 1420 1420 1420 1420 1420 1420 1421 1421 1422 1423 1424 1424 1425 1426 1427 1428 1429 1429 1430 1432 1433 1434 1435 1437 1438 1440 1441 1442 1443 1444 1444 1445 1446 1447 1448 1449 1450 1450 1451 1452 1453 1454 1454 1455 1455 1456 1456 1456 1456 1456 1456 1456 1456 1455 1455 1455 1455 1454 1454 1454 1454 1454 1453 1453 1453 1452 1451 1451
1419 1418 1418 1418 1418 1418 1418 1418 1419 1419 1420 1421 1422 1423 1423 1424 1425 1426 1427 1428 1429 1430 1431 1432 1433 1435 1437 1438 1439 1440 1440 1441 1442 1443 1444 1445 1446 1447 1448 1449 1450 1450 1451 1452 1452 1453 1453 1454 1454 1454 1454 1454 1454 1453 1453 1453 1453 1452 1452 1452 1452 1451 1451 1451 1451 1450 1450 1449 1449
1417 1416 1416 1415 1415 1415 1415 1416 1417 1417 1418 1419 1419 1420 1421 1421 1422 1423 1424 1425 1426 1427 1428 1429 1430 1432 1434 1435 1436 1437 1437 1438 1439 1440 1442 1443 1444 1445 1446 1447 1448 1448 1449 1449 1449 1450 1450 1451 1451 1451 1451 1451 1451 1451 1451 1451 1450 1450 1450 1450 1449 1449 1449 1449 1449 1448 1448 1447 1446
1415 1415 1414 1414 1414 1414 1414 1414 1414 1415 1415 1416 1417 1417 1418 1419 1419 1420 1421 1422 1423 1424 1425 1426 1427 1429 1430 1432 1433 1434 1434 1435 1437 1438 1439 1441 1442 1443 1444 1445 1445 1446 1446 1447 1447 1447 1448 1449 1449 1449 1449 1449 1449 1449 1449 1449 1448 1448 1448 1447 1447 1447 1446 1446 1446 1446 1445 1445 1444
1414 1414 1413 1413 1412 1412 1412 1412 1412 1413 1413 1414 1414 1414 1415 1415 1416 1417 1418 1419 1420 1421 1422 1423 1424 1425 1427 1428 1430 1431 1432 1433 1434 1436 1437 1438 1439 1441 1442 1443 1443 1443 1444 1444 1444 1445 1445 1446 1446 1446 1446 1446 1446 1446 1446 1446 1446 1446 1445 1445 1445 1444 1444 1444 1444 1444 1443 1443 1442
1414 1413 1412 1412 1411 1411 1411 1411 1411 1411 1411 1411 1411 1412 1412 1413 1413 1414 1414 1416 1417 1418 1419 1419 1420 1422 1423 1425 1427 1428 1429 1431 1432 1433 1434 1436 1437 1438 1439 1440 1440 1441 1441 1441 1442 1442 1443 1443 1444 1444 1444 1444 1444 1444 1444 1444 1444 1444 1443 1443 1442 1442 1442 1442 1441 1441 1441 1440 1440
1413 1412 1411 1411 1410 1410 1409 1409 1409 1409 1409 1409 1409 1409 1409 1410 1410 1411 1412 1413 1414 1414 1415 1416 1417 1419 1420 1422 1424 1425 1427 1428 1429 1430 1432 1433 1434 1436 1437 1438 1438 1438 1438 1439 1439 1439 1440 1441 1441 1441 1441 1441 1442 1442 1442 1442 1441 1441 1441 1440 1440 1440 1439 1439 1439 1439 1439 1438 1438
1412 1411 1410 1410 1409 1409 1408 1408 1407 1407 1407 1407 1407 1407 1407 1408 1408 1409 1409 1410 1410 1411 1412 1413 1414 1415 1417 1419 1421 1423 1425 1426 1427 1428 1429 1431 1432 1434 1435 1435 1435 1435 1435 1436 1436 1437 1437 1438 1438 1438 1439 1439 1439 1439 1439 1439 1439 1439 1438 1438 1438 1437 1437 1437 1437 1436 1436 1436 1436
1411 1410 1409 1409 1408 1407 1407 1406 1406 1405 1405 1405 1405 1405 1405 1406 1406 1406 1407 1407 1408 1409 1409 1411 1412 1413 1415 1417 1419 1420 1422 1423 1424 1425 1427 1429 1430 1431 1432 1432 1432 1432 1433 1433 1434 1434 1435 1435 1435 1436 1436 1436 1437 1437 1437 1437 1436 1436 1436 1435 1435 1435 1434 1434 1434 1434 1434 1434 1434
1409 1409 1408 1407 1406 1406 1405 1405 1404 1404 1404 1404 1404 1404 1404 1404 1404 1404 1405 1405 1406 1407 1408 1409 1409 1411 1412 1414 1415 1417 1419 1420 1422 1423 1425 1426 1428 1429 1429 1429 1429 1429 1430 1431 1431 1432 1432 1433 1433 1433 1433 1434 1434 1434 1434 1434 1434 1434 1433 1433 1433 1432 1432 1432 1432 1432 1432 1431 1431
1408 1407 1406 1405 1404 1404 1403 1403 1402 1402 1402 1402 1402 1402 1402 1402 1402 1402 1403 1403 1404 1404 1405 1406 1407 1409 1410 1411 1413 1414 1416 1418 1419 1421 1422 1424 1424 1425 1425 1426 1426 1427 1428 1428 1429 1429 1430 1430 1430 1430 1431 1431 1432 1432 1432 1432 1431 1431 1431 1430 1430 1430 1429 1429 1429 1429 1429 1429 1429
1405 1404 1404 1403 1402 1402 1401 1400 1400 1400 1400 1400 1399 1399 1399 1400 1400 1400 1400 1401 1401 1402 1403 1404 1404 1406 1407 1408 1410 1411 1413 1414 1416 1418 1419 1420 1421 1421 1422 1422 1423 1424 1425 1426 1426 1427 1427 1428 1428 1428 1428 1429 1429 1429 1429 1429 1429 1429 1429 1428 1428 1428 1427 1427 1427 1427 1426 1426 1426
1403 1402 1401 1401 1400 1399 1399 1398 1398 1397 1397 1397 1397 1397 1397 1397 1397 1397 1398 1398 1399 1399 1400 1401 1402 1403 1404 1405 1406 1408 1409 1411 1413 1414 1415 1416 1417 1418 1419 1419 1420 1421 1422 1423 1424 1424 1425 1425 1425 1426 1426 1426 1426 1426 1426 1426 1426 1426 1425 1425 1425 1424 1424 1424 1424 1424 1424 1424 1423
1402 1400 1399 1398 1397 1397 1396 1395 1395 1395 1395 1395 1394 1394 1394 1394 1394 1394 1395 1395 1396 1397 1397 1398 1399 1400 1401 1401 1402 1404 1405 1407 1409 1410 1411 1412 1413 1414 1415 1416 1417 1419 1420 1421 1421 1422 1422 1423 1423 1423 1424 1424 1423 1423 1424 1424 1423 1423 1423 1422 1422 1422 1421 1421 1421 1421 1421 1421 1421
1401 1400 1398 1397 1395 1394 1394 1393 1393 1393 1392 1392 1392 1392 1391 1391 1391 1391 1392 1393 1393 1394 1394 1395 1395 1395 1396 1396 1398 1399 1401 1403 1405 1406 1408 1409 1410 1411 1412 1414 1415 1416 1417 1418 1419 1419 1419 1420 1420 1421 1421 1421 1421 1421 1420 1420 1420 1420 1420 1420 1419 1419 1419 1419 1419 1419 1419 1419 1419
1399 1398 1397 1395 1394 1393 1392 1391 1390 1390 1390 1389 1389 1389 1389 1389 1389 1389 1389 1389 1389 1390 1390 1390 1390 1390 1391 1392 1394 1395 1397 1399 1401 1402 1404 1405 1406 1408 1409 1411 1412 1413 1414 1415 1416 1416 1417 1417 1418 1418 1419 1419 1419 1419 1418 1418 1418 1418 1418 1418 1417 1417 1417 1416 1416 1416 1416 1417 1417
1396 1395 1394 1393 1392 1390 1389 1389 1388 1388 1387 1387 1386 1386 1386 1385 1385 1385 1385 1385 1385 1385 1385 1385 1385 1386 1387 1389 1390 1392 1394 1395 1397 1398 1400 1401 1404 1405 1407 1408 1409 1410 1412 1413 1413 1414 1414 1415 1415 1416 1416 1416 1416 1416 1416 1416 1416 1416 1415 1415 1415 1414 1414 1414 1414 1414 1414 1415 1414
1393 1392 1391 1390 1389 1388 1387 1386 1386 1385 1384 1384 1383 1383 1382 1382 1381 1381 1380 1380 1380 1380 1380 1380 1381 1382 1383 1384 1386 1388 1390 1391 1393 1395 1397 1399 1401 1403 1404 1405 1406 1408 1409 1410 1411 1411 1412 1412 1413 1413 1414 1414 1414 1414 1414 1414 1413 1413 1413 1413 1412 1412 1412 1412 1412 1412 1412 1412 1412
1390 1389 1388 1387 1386 1386 1385 1384 1383 1382 1381 1380 1379 1379 1378 1378 1377 1377 1376 1376 1376 1376 1376 1377 1378 1379 1380 1381 1383 1384 1386 1388 1389 1391 1394 1396 1398 1399 1401 1402 1403 1404 1406 1407 1408 1409 1409 1410 1410 1411 1411 1412 1412 1411 1411 1411 1411 1411 1410 1410 1410 1410 1410 1410 1409 1409 1409 1410 1409
1388 1387 1386 1385 1384 1383 1382 1381 1380 1379 1378 1377 1376 1376 1375 1375 1374 1374 1374 1374 1374 1374 1374 1374 1375 1375 1377 1378 1379 1380 1382 1384 1386 1388 1390 1393 1394 1396 1397 1399 1400 1402 1404 1405 1405 1406 1407 1407 1408 1408 1409 1409 1409 1409 1409 1409 1409 1409 1408 1408 1408 1408 1408 1407 1407 1407 1407 1407 1407
1384 1384 1383 1382 1381 1380 1379 1378 1377 1376 1375 1374 1374 1374 1374 1373 1373 1373 1373 1373 1373 1372 1371 1372 1372 1373 1373 1374 1375 1377 1378 1380 1382 1385 1387 1389 1391 1393 1394 1396 1398 1399 1401 1402 1403 1403 1404 1404 1405 1406 1406 1406 1406 1406 1406 1406 1406 1406 1406 1406 1406 1405 1405 1405 1405 1405 1405 1405 1405
1381 1380 1380 1379 1378 1377 1376 1375 1374 1374 1373 1372 1372 1372 1372 1372 1371 1371 1371 1371 1370 1370 1369 1369 1369 1370 1370 1371 1372 1373 1375 1377 1380 1382 1384 1386 1388 1389 1391 1393 1395 1397 1398 1399 1400 1401 1401 1402 1403 1403 1404 1404 1404 1404 1404 1404 1404 1404 1404 1404 1404 1403 1403 1403 1403 1403 1402 1402 1402
1378 1378 1377 1376 1375 1374 1374 1373 1372 1371 1370 1370 1369 1369 1369 1369 1369 1369 1369 1369 1369 1368 1368 1368 1367 1367 1368 1369 1370 1372 1374 1376 1378 1380 1382 1383 1385 1387 1389 1391 1392 1394 1395 1397 1397 1398 1399 1399 1400 1400 1401 1401 1401 1401 1402 1402 1402 1402 1401 1401 1401 1401 1401 1401 1400 1400 1400 1400 1400
1375 1375 1374 1373 1372 1372 1371 1370 1369 1368 1368 1368 1367 1367 1367 1367 1367 1367 1367 1367 1366 1366 1366 1365 1365 1366 1367 1368 1369 1370 1372 1374 1375 1377 1379 1381 1383 1384 1387 1388 1390 1391 1393 1394 1395 1395 1396 1397 1397 1398 1398 1399 1399 1399 1399 1399 1399 1399 1399 1399 1399 1399 1399 1398 1398 1398 1398 1398 1398
1373 1372 1371 1371 1370 1369 1368 1367 1367 1366 1365 1365 1365 1364 1364 1364 1364 1364 1364 1364 1364 1364 1364 1363 1363 1364 1365 1366 1367 1368 1369 1371 1373 1374 1376 1378 1380 1382 1384 1386 1387 1389 1390 1391 1392 1393 1393 1394 1394 1395 1396 1396 1396 1396 1397 1397 1397 1397 1397 1397 1397 1396 1396 1396 1396 1396 1395 1395 1396
1371 1370 1369 1368 1367 1367 1366 1365 1364 1364 1363 1362 1362 1362 1362 1362 1362 1362 1362 1361 1361 1361 1361 1361 1361 1362 1363 1364 1365 1366 1367 1368 1370 1372 1374 1376 1378 1380 1382 1383 1384 1386 1387 1389 1389 1390 1391 1391 1392 1393 1393 1394 1394 1394 1394 1394 1394 1394 1394 1394 1394 1394 1394 1394 1394 1393 1393 1393 1393